CAPE
0 0 0 0 0 0 0 0 0 0 0 0 0 0 0 0 0 0 0 0 0 0 0 0 0 0 0 0 1 0 0 0 2 0 0 0 0 0 0 0 0 0 0
0 0 0 0 0 0 0 0 0 0 0 0 0 0 0 0 0 0 0 0 0 0 0 0 0 0 0 0 0 0 0 0 0 1 0 0 0 0 0 0 0 0 0
0 0 0 0 0 0 0 0 0 0 0 0 0 0 0 0 0 0 0 0 0 0 0 0 0 0 0 0 0 0 0 0 0 0 0 0 0 1 0 0 0 0 0
0 0 0 0 0 0 0 0 0 0 0 0 0 0 0 0 0 0 0 0 0 0 0 0 0 0 0 0 0 0 0 0 0 0 0 0 0 0 0 1 0 0 0
0 0 0 0 0 0 0 0 0 0 0 0 0 0 0 0 0 0 0 0 0 0 0 0 0 0 0 0 0 0 0 0 0 1 0 0 0 0 1 0 2 0 0
0 0 0 0 0 0 0 0 0 0 0 0 0 0 0 0 0 0 0 0 0 0 0 0 0 0 0 0 0 1 0 1 0 1 0 0 0 0 0 1 1 0 0
0 0 0 0 0 0 0 0 0 0 0 0 0 0 0 0 0 0 0 0 0 0 0 0 0 0 0 0 0 1 0 0 2 1 0 0 1 1 0 1 1 0 0
0 0 0 0 0 0 0 0 0 0 0 0 0 0 0 0 0 0 0 0 0 0 0 0 0 0 0 0 0 1 0 0 0 0 0 0 0 0 1 0 0 0 0
0 0 0 0 0 0 0 0 0 0 0 0 0 0 0 0 0 0 0 0 0 0 0 0 0 0 0 1 1 0 0 0 0 0 0 0 0 0 0 0 0 0 0
0 0 0 0 0 0 0 0 0 0 0 0 0 0 0 0 0 0 0 0 0 0 0 0 0 0 0 1 0 0 0 0 0 0 0 0 0 0 0 0 1 0 0
0 0 0 0 0 0 0 0 0 0 0 0 0 0 0 0 0 0 0 0 0 0 0 0 0 0 1 0 1 0 0 0 0 0 0 0 0 0 0 0 0 0 0
0 0 0 0 0 0 0 0 0 0 0 0 0 0 0 0 0 0 0 1 0 0 0 0 0 0 3 0 0 2 1 0 0 0 0 0 0 0 0 0 0 0 0
0 0 0 0 0 0 0 0 0 0 0 0 0 0 0 0 0 0 0 0 1 0 0 0 0 0 1 0 0 1 0 0 0 0 0 0 0 0 0 0 0 0 0
0 0 0 0 0 0 0 0 0 0 0 0 0 0 0 0 0 0 0 0 0 0 0 0 0 0 0 0 0 0 0 0 0 0 0 0 0 0 0 0 0 0 0
0 0 0 0 0 0 0 0 0 0 0 0 0 0 0 0 0 0 0 0 0 0 0 0 0 0 0 0 0 0 0 0 0 0 0 0 0 0 0 0 0 0 0
0 0 0 0 0 0 0 0 0 0 0 0 0 0 0 0 0 0 0 0 0 1 0 0 0 0 0 0 0 0 0 0 0 0 0 0 0 0 0 0 0 0 0
0 0 0 0 0 0 0 0 0 0 0 0 0 0 0 0 0 0 0 0 0 0 0 0 0 0 0 0 0 0 0 0 0 0 0 0 0 0 0 0 0 0 0
0 0 0 0 0 0 0 0 0 0 0 0 0 0 0 1 0 0 0 0 0 0 0 0 0 0 0 0 0 0 0 0 0 0 0 0 0 0 0 0 0 0 0
0 0 0 0 0 0 0 0 0 0 0 0 0 0 0 0 0 0 0 0 0 0 0 0 0 0 0 0 0 0 0 0 0 0 0 0 0 0 0 0 0 0 0
0 0 0 0 0 0 0 0 0 0 0 0 0 0 0 0 0 0 0 0 0 0 0 0 0 0 0 0 0 0 0 0 0 0 0 0 0 0 0 0 0 0 0
0 0 0 0 0 0 0 0 0 0 0 0 0 0 0 0 0 0 0 0 0 0 0 0 0 0 0 0 0 0 0 0 0 0 0 0 0 0 0 0 0 0 0
0 0 0 0 0 0 0 0 0 0 0 0 0 0 0 0 0 0 0 0 0 0 0 0 0 0 0 0 0 0 0 0 0 0 0 0 0 0 0 0 0 0 0
0 0 0 0 0 0 0 0 0 0 0 0 0 0 0 0 0 0 0 0 0 0 0 0 0 0 0 0 0 0 0 0 0 0 0 0 0 0 0 0 0 0 0
0 0 0 0 0 0 0 0 0 0 0 0 0 0 0 0 0 0 0 0 0 0 0 0 0 0 0 0 0 0 0 0 0 0 0 0 0 0 0 0 0 0 0
0 0 0 0 0 0 0 0 0 0 0 0 0 0 0 0 0 0 0 0 0 0 0 0 0 0 0 0 0 0 0 0 0 0 0 0 0 0 0 0 0 0 0
0 0 0 0 0 0 0 0 0 0 0 0 0 0 0 0 0 0 0 0 0 0 0 0 0 0 0 0 0 0 0 0 0 0 0 0 0 0 0 0 0 0 0
CIN
-0 -0 -0 -0 -0 -0 -0 -0 -0 -0 -0 -0 -0 -0 -0 -0 -0 -0 -0 -0 -0 -0 -0 -0 -0 -0 -0 -0 -0 -0 -0 -0 -0 -0 -0 -0 -0 -0 -0 -0 -0 -0 -0
-0 -0 -0 -0 -0 -0 -0 -0 -0 -0 -0 -0 -0 -0 -0 -0 -0 -0 -0 -0 -0 -0 -0 -0 -0 -0 -0 -0 -0 -0 -0 -0 -0 -0 -0 -0 -0 -0 -0 -0 -0 -0 -0
-0 -0 -0 -0 -0 -0 -0 -0 -0 -0 -0 -0 -0 -0 -0 -0 -0 -0 -0 -0 -0 -0 -0 -0 -0 -0 -0 -0 -0 -1 -0 -0 -0 -0 -0 -0 -0 -3 -0 -0 -0 -0 -0
-0 -0 -0 -0 -0 -0 -0 -0 -0 -0 -0 -0 -0 -0 -0 -0 -0 -0 -0 -0 -0 -0 -0 -0 -0 -0 -0 -0 -0 -0 -0 -0 -0 -0 -0 -0 -0 -0 -0 -0 -0 -0 -0
-0 -0 -0 -0 -0 -0 -0 -0 -0 -0 -0 -0 -0 -0 -0 -0 -0 -0 -0 -0 -0 -0 -0 -0 -0 -0 -0 -0 -0 -0 -0 -0 -1 -0 -0 -0 -0 -0 -0 -0 -0 -0 -0
-0 -0 -0 -0 -0 -0 -0 -0 -0 -0 -0 -0 -0 -0 -0 -0 -0 -0 -0 -0 -0 -0 -0 -0 -0 -0 -0 -0 -0 -1 -4 -1 -0 -0 -0 -0 -0 -0 -0 -0 -0 -0 -0
-0 -0 -0 -0 -0 -0 -0 -0 -0 -0 -0 -0 -0 -0 -0 -0 -0 -0 -0 -0 -0 -0 -0 -0 -0 -0 -0 -0 -0 -4 -2 -6 -0 -0 -0 -0 -0 -0 -0 -0 -0 -0 -0
-0 -0 -0 -0 -0 -0 -0 -0 -0 -0 -0 -0 -0 -0 -0 -0 -0 -0 -0 -0 -0 -0 -0 -0 -0 -0 -0 -0 -0 -7 -0 -0 -2 -1 -0 -0 -0 -0 -0 -0 -0 -0 -0
-0 -0 -0 -0 -0 -0 -0 -0 -0 -0 -0 -0 -0 -0 -0 -0 -0 -0 -0 -0 -0 -0 -0 -0 -0 -0 -0 -0 -0 -0 -0 -0 -0 -0 -0 -0 -0 -0 -0 -0 -0 -0 -0
-0 -0 -0 -0 -0 -0 -0 -0 -0 -0 -0 -0 -0 -0 -0 -0 -0 -0 -0 -0 -0 -0 -0 -0 -0 -0 -0 -0 -0 -0 -0 -0 -0 -0 -0 -0 -0 -0 -0 -0 -0 -0 -0
-0 -0 -0 -0 -0 -0 -0 -0 -0 -0 -0 -0 -0 -0 -0 -0 -0 -0 -0 -0 -0 -0 -0 -0 -0 -0 -0 -0 -0 -0 -0 -0 -0 -0 -0 -0 -0 -0 -0 -0 -0 -0 -0
-0 -0 -0 -0 -0 -0 -0 -0 -0 -0 -0 -0 -0 -0 -0 -0 -0 -0 -0 -0 -0 -0 -0 -0 -0 -0 -0 -0 -0 -0 -0 -0 -0 -0 -0 -0 -0 -0 -0 -0 -0 -0 -0
-0 -0 -0 -0 -0 -0 -0 -0 -0 -0 -0 -0 -0 -0 -0 -0 -0 -0 -0 -0 -0 -0 -0 -0 -0 -0 -0 -0 -0 -0 -0 -0 -0 -0 -0 -0 -0 -0 -0 -0 -0 -0 -0
-0 -0 -0 -0 -0 -0 -0 -0 -0 -0 -0 -0 -0 -0 -0 -0 -0 -0 -0 -0 -0 -0 -0 -0 -0 -0 -0 -0 -0 -0 -0 -0 -0 -0 -0 -0 -0 -0 -0 -0 -0 -0 -0
-0 -0 -0 -0 -0 -0 -0 -0 -0 -0 -0 -0 -0 -0 -0 -0 -0 -0 -0 -0 -0 -0 -0 -0 -0 -0 -0 -0 -0 -0 -0 -0 -0 -0 -0 -0 -0 -0 -0 -0 -0 -0 -0
-0 -0 -0 -0 -0 -0 -0 -0 -0 -0 -0 -0 -0 -0 -0 -0 -0 -0 -0 -0 -0 -0 -0 -0 -0 -0 -0 -0 -0 -0 -0 -0 -0 -0 -0 -0 -0 -0 -0 -0 -0 -0 -0
-0 -0 -0 -0 -0 -0 -0 -0 -0 -0 -0 -0 -0 -0 -0 -0 -0 -0 -0 -0 -0 -0 -0 -0 -0 -0 -0 -0 -0 -0 -0 -0 -0 -0 -0 -0 -0 -0 -0 -0 -0 -0 -0
-0 -0 -0 -0 -0 -0 -0 -0 -0 -0 -0 -0 -0 -0 -0 -0 -0 -0 -0 -0 -0 -0 -0 -0 -0 -0 -0 -0 -0 -0 -0 -0 -0 -0 -0 -0 -0 -0 -0 -0 -0 -0 -0
-0 -0 -0 -0 -0 -0 -0 -0 -0 -0 -0 -0 -0 -0 -0 -0 -0 -0 -0 -0 -0 -0 -0 -0 -0 -0 -0 -0 -0 -0 -0 -0 -0 -0 -0 -0 -0 -0 -0 -0 -0 -0 -0
-0 -0 -0 -0 -0 -0 -0 -0 -0 -0 -0 -0 -0 -0 -0 -0 -0 -0 -0 -0 -0 -0 -0 -0 -0 -0 -0 -0 -0 -0 -0 -0 -0 -0 -0 -0 -0 -0 -0 -0 -0 -0 -0
-0 -0 -0 -0 -0 -0 -0 -0 -0 -0 -0 -0 -0 -0 -0 -0 -0 -0 -0 -0 -0 -0 -0 -0 -0 -0 -0 -0 -0 -0 -0 -0 -0 -0 -0 -0 -0 -0 -0 -0 -0 -0 -0
-0 -0 -0 -0 -0 -0 -0 -0 -0 -0 -0 -0 -0 -0 -0 -0 -0 -0 -0 -0 -0 -0 -0 -0 -0 -0 -0 -0 -0 -0 -0 -0 -0 -0 -0 -0 -0 -0 -0 -0 -0 -0 -0
-0 -0 -0 -0 -0 -0 -0 -0 -0 -0 -0 -0 -0 -0 -0 -0 -0 -0 -0 -0 -0 -0 -0 -0 -0 -0 -0 -0 -0 -0 -0 -0 -0 -0 -0 -0 -0 -0 -0 -0 -0 -0 -0
-0 -0 -0 -0 -0 -0 -0 -0 -0 -0 -0 -0 -0 -0 -0 -0 -0 -0 -0 -0 -0 -0 -0 -0 -0 -0 -0 -0 -0 -0 -0 -0 -0 -0 -0 -0 -0 -0 -0 -0 -0 -0 -0
-0 -0 -0 -0 -0 -0 -0 -0 -0 -0 -0 -0 -0 -0 -0 -0 -0 -0 -0 -0 -0 -0 -0 -0 -0 -0 -0 -0 -0 -0 -0 -0 -0 -0 -0 -0 -0 -0 -0 -0 -0 -0 -0
-0 -0 -0 -0 -0 -0 -0 -0 -0 -0 -0 -0 -0 -0 -0 -0 -0 -0 -0 -0 -0 -0 -0 -0 -0 -0 -0 -0 -0 -0 -0 -0 -0 -0 -0 -0 -0 -0 -0 -0 -0 -0 -0
Wind_Speed
17 15 14 11 9 7 7 5 3 2 2 4 7 10 14 17 19 21 23 25 28 29 30 31 32 33 33 34 35 36 37 39 45 47 47 49 51 53 52 50 49 49 50
14 12 11 10 9 7 6 4 3 2 4 6 9 12 15 17 20 22 24 26 28 29 30 31 32 31 33 33 35 36 38 39 43 49 48 50 50 51 50 51 49 48 49
13 12 11 10 9 8 7 5 4 4 6 8 10 13 16 17 20 22 24 25 27 28 29 30 30 31 33 35 36 37 38 39 41 45 49 47 47 48 50 47 49 48 47
13 12 12 11 10 8 7 6 5 6 7 10 12 14 15 18 20 21 23 25 26 27 27 28 29 31 33 35 36 37 37 40 41 44 46 47 47 46 45 52 54 50 51
13 12 12 10 9 9 8 7 7 8 9 10 12 15 16 18 20 22 23 25 25 26 27 27 28 29 31 32 35 37 38 40 42 43 44 45 46 48 49 47 47 49 47
13 12 11 11 10 10 9 9 9 10 11 12 14 16 17 19 19 21 23 24 25 26 27 28 28 30 31 33 33 35 36 39 41 41 42 43 42 42 43 44 46 48 49
14 13 13 12 12 12 11 11 11 11 12 14 16 17 18 18 19 21 23 23 24 25 26 28 29 30 32 32 33 34 35 34 34 36 39 39 39 40 39 41 41 40 39
16 15 15 14 14 13 12 12 13 14 15 16 17 17 18 18 20 22 22 22 23 24 25 26 28 31 31 32 33 34 33 34 33 32 34 34 33 34 35 36 36 36 33
19 19 17 17 16 15 15 15 15 15 17 17 17 17 17 20 20 21 21 22 23 24 24 26 28 29 30 31 33 34 35 34 32 31 31 29 30 32 33 33 35 37 36
22 20 19 18 19 19 17 16 17 17 17 16 17 18 19 20 20 20 20 21 23 24 25 26 26 28 29 31 31 33 35 35 34 33 31 31 30 32 32 30 29 33 32
23 22 22 20 20 19 18 18 18 17 17 18 18 19 20 20 20 20 19 20 22 24 24 26 26 27 28 29 29 31 32 33 32 31 30 29 31 32 33 31 28 25 27
24 24 24 23 22 20 19 18 17 17 18 18 19 21 22 21 20 20 20 20 20 23 26 25 25 27 28 28 29 29 31 31 29 30 30 30 31 32 31 29 26 24 20
26 26 24 22 21 20 20 20 19 18 19 19 22 25 23 20 20 20 20 20 21 23 23 24 25 27 27 27 28 29 29 30 30 31 31 30 29 29 28 27 26 27 21
26 26 24 24 23 21 20 20 20 19 19 22 26 24 22 21 20 20 20 21 22 23 24 25 26 26 26 27 28 28 29 29 29 30 30 30 29 29 29 28 28 28 26
23 24 24 23 23 22 21 20 19 20 20 24 23 21 21 22 22 20 21 23 23 24 26 26 27 27 28 28 28 27 28 28 29 29 30 29 29 29 30 29 27 26 26
22 23 24 23 22 21 21 21 21 21 22 22 21 19 20 21 21 21 22 23 24 25 27 28 28 28 28 27 27 28 27 29 28 28 29 29 29 29 30 28 27 26 26
19 20 21 22 22 22 22 22 23 25 23 21 20 21 21 22 21 22 23 24 25 27 27 27 28 27 26 25 26 26 27 27 26 27 27 27 28 28 29 29 29 26 25
20 20 21 21 22 23 23 24 24 24 24 24 21 21 21 21 22 23 24 26 27 27 27 28 27 26 25 25 25 26 26 26 26 26 25 26 26 27 28 28 27 24 23
21 21 21 21 22 23 23 24 26 25 25 25 24 23 22 22 23 25 26 28 29 29 28 27 25 24 24 24 25 25 25 25 25 25 25 26 26 26 28 26 25 22 21
22 22 22 24 24 24 25 26 26 26 26 26 27 26 24 25 27 27 27 29 29 29 27 26 25 24 24 24 24 25 25 25 24 23 24 26 25 26 26 25 23 22 20
23 23 24 24 26 26 26 28 28 28 28 29 29 27 26 28 30 30 30 29 28 28 27 25 25 24 24 24 24 24 25 25 24 23 24 25 25 26 24 24 22 20 20
26 26 27 28 28 29 30 31 30 31 32 32 31 30 29 31 31 31 30 29 27 27 26 25 24 23 23 24 23 24 25 25 24 24 25 25 24 25 24 24 22 20 20
28 30 31 32 33 34 35 34 33 34 34 35 34 33 33 33 32 31 30 29 28 26 24 24 24 25 24 24 23 23 24 24 24 24 25 25 25 25 24 24 23 21 21
31 32 34 35 36 37 38 38 37 37 37 37 36 35 34 34 32 31 30 29 27 26 25 24 24 25 26 25 24 24 23 23 24 24 24 24 25 25 24 23 22 21 22
34 35 36 37 38 38 39 40 40 39 39 38 38 37 36 34 34 33 32 29 28 28 27 26 26 28 28 27 27 26 25 24 23 24 23 23 24 24 24 22 22 21 23
37 38 38 39 39 40 40 41 41 40 40 39 38 37 36 36 34 33 31 31 30 30 28 30 29 29 28 28 28 26 24 23 23 22 22 23 23 24 23 22 21 21 23
Wind_Direction
265 262 253 246 244 249 264 264 254 264 320 340 343 344 343 343 347 348 348 348 349 349 349 349 349 350 351 351 350 349 348 346 339 340 343 345 346 346 348 350 351 351 351
261 253 245 235 231 243 246 237 225 251 312 327 335 335 339 342 344 346 346 348 347 347 348 349 349 351 351 350 349 348 347 346 343 340 344 346 347 349 350 352 354 356 355
258 247 239 235 235 237 224 214 230 275 303 317 326 330 335 340 343 345 347 347 348 349 349 350 350 350 349 349 349 349 348 348 347 344 344 348 350 352 352 356 357 357 358
251 241 232 232 230 220 213 222 243 275 298 312 324 330 336 340 342 346 346 346 347 348 350 350 351 351 350 350 350 349 349 348 349 347 347 348 351 355 358 355 355 359 357
244 236 231 227 220 216 224 243 266 285 300 313 322 328 334 337 339 342 344 345 346 347 349 351 352 352 353 352 350 350 349 349 348 348 349 351 353 355 357 357 358 358 1
236 228 222 220 220 226 239 255 272 287 300 310 318 322 329 334 339 341 342 343 345 346 348 350 350 351 352 351 352 352 351 349 349 350 351 352 355 357 358 360 360 1 1
233 227 225 227 234 243 251 263 274 285 298 306 312 318 324 331 335 337 339 342 343 345 347 348 350 351 351 352 353 353 352 354 354 352 352 354 355 358 359 359 2 4 5
234 232 235 235 241 249 256 265 276 286 295 303 309 316 322 329 331 333 337 339 341 344 347 349 350 349 352 353 353 353 355 355 356 357 355 356 358 360 1 1 2 3 8
237 236 237 239 243 249 257 265 276 285 293 301 308 313 318 323 329 332 334 338 341 343 346 348 349 350 352 352 353 353 353 355 358 359 1 3 5 4 2 2 2 3 5
240 239 239 243 249 255 259 266 280 285 291 299 305 311 316 322 327 328 333 336 338 341 344 346 348 349 351 352 353 352 351 353 355 356 359 1 2 2 2 4 4 2 4
247 248 247 248 251 258 263 272 278 284 291 296 302 310 316 319 321 325 330 333 335 338 340 342 345 347 349 351 352 352 351 352 354 355 356 357 358 359 360 2 4 4 4
247 247 249 251 255 259 262 270 275 281 286 293 300 308 311 315 318 322 326 330 334 335 335 340 342 345 346 348 349 349 349 351 352 352 353 353 353 355 357 359 1 1 1
251 249 248 249 253 256 260 267 273 279 285 291 300 303 304 309 315 319 324 328 330 332 335 337 338 341 342 344 346 347 348 349 349 349 349 349 352 354 356 359 360 359 357
251 247 247 248 252 257 263 267 272 275 283 293 298 297 300 304 310 316 320 324 326 328 330 334 335 337 340 341 342 344 346 347 347 347 348 349 352 353 354 356 354 355 353
254 248 246 249 251 256 262 264 269 279 286 295 292 295 297 301 306 311 316 319 322 324 326 329 331 331 332 335 337 340 342 345 345 347 347 347 349 350 350 352 353 352 349
257 251 248 249 251 255 259 269 277 286 290 290 294 293 299 307 309 310 314 316 319 321 322 323 324 326 327 330 332 335 338 340 342 344 346 346 346 347 347 349 351 349 345
257 249 246 248 251 256 262 266 276 288 287 287 288 293 297 305 305 309 311 315 317 319 318 320 321 322 324 327 329 331 334 338 340 341 343 344 345 345 346 346 347 347 345
269 257 250 250 254 259 262 269 278 279 280 285 287 292 296 300 305 308 311 315 314 317 317 317 318 321 323 325 328 330 333 335 337 339 341 343 343 344 344 344 347 346 345
273 266 260 261 262 265 266 272 281 281 281 286 291 294 296 297 303 307 310 309 311 311 313 315 318 319 321 324 326 328 331 333 335 337 337 341 341 342 341 344 346 347 346
278 272 267 266 266 265 270 277 279 280 282 284 287 289 294 298 300 302 306 309 309 311 313 314 316 318 320 322 325 327 329 331 332 335 334 337 339 340 339 341 344 345 344
279 277 273 272 271 270 273 278 281 280 282 284 287 290 290 293 298 299 301 304 306 309 310 312 314 316 318 321 323 325 327 328 330 332 332 334 336 336 338 339 340 342 341
283 279 277 276 275 275 276 282 281 282 285 286 288 290 291 295 297 298 300 302 304 306 309 310 311 313 315 316 319 322 324 324 327 328 328 331 332 333 334 334 336 337 337
287 283 281 280 279 279 279 281 282 282 283 286 288 290 291 292 295 295 298 301 303 305 306 307 309 311 314 315 316 319 321 321 324 325 324 326 327 328 329 329 330 331 330
292 288 285 283 282 281 281 281 282 283 283 284 286 288 289 292 291 293 296 298 301 302 303 305 305 307 310 312 313 315 319 319 320 320 321 323 322 323 324 325 325 325 324
296 292 289 287 285 284 284 283 284 284 284 285 286 287 288 289 290 292 294 295 298 300 302 302 304 306 306 308 311 313 315 315 316 316 317 319 318 319 319 319 320 321 318
298 295 293 291 288 287 286 285 285 285 285 286 286 286 287 288 290 291 291 293 295 298 300 302 303 305 306 307 309 312 313 312 313 313 314 315 315 315 316 314 315 315 314